FW8707 Weather Reports


time (UTC)temp
C
wind
direction
speed
KPH
gust
KPH
rain 1hr
cm
rain 24hr
cm
rain mn
cm
humidity
%
barometer
mb
20260906215014 31 233 1.6 11.3 0.00 0.00 0.00 36 1016.1
20260906214525 32 60 6.4 11.3 0.00 0.00 0.00 35 1016.3
20260906214012 33 79 3.2 9.7 0.00 0.00 0.00 32 1016.3
20260906213515 33 197 1.6 8.0 0.00 0.00 0.00 32 1016.4
20260906213028 33 57 1.6 9.7 0.00 0.00 0.00 32 1016.5
20260906212516 33 204 1.6 14.5 0.00 0.00 0.00 31 1016.5
20260906212014 33 147 4.8 16.1 0.00 0.00 0.00 30 1016.5
20260906211532 33 300 3.2 16.1 0.00 0.00 0.00 33 1016.6
20260906211018 33 292 0.0 9.7 0.00 0.00 0.00 32 1016.7
20260906210519 33 179 1.6 11.3 0.00 0.00 0.00 32 1016.8
20260906210035 33 220 1.6 11.3 0.00 0.00 0.00 31 1016.8
20260906205508 33 184 1.6 12.9 0.00 0.00 0.00 33 1016.9
20260906205009 33 75 1.6 12.9 0.00 0.00 0.00 34 1017.0
20260906204520 33 360 3.2 9.7 0.00 0.00 0.00 34 1017.0
20260906204012 33 52 3.2 9.7 0.00 0.00 0.00 32 1017.0
20260906203515 33 229 0.0 8.0 0.00 0.00 0.00 34 1017.0
20260906203024 33 344 0.0 6.4 0.00 0.00 0.00 35 1017.1
20260906202517 33 28 1.6 9.7 0.00 0.00 0.00 36 1017.1
20260906202015 33 262 1.6 9.7 0.00 0.00 0.00 34 1017.2
20260906201530 32 252 0.0 12.9 0.00 0.00 0.00 34 1017.2
20260906201017 32 15 3.2 12.9 0.00 0.00 0.00 35 1017.3
20260906200518 32 233 0.0 16.1 0.00 0.00 0.00 35 1017.2
20260906200034 32 67 1.6 16.1 0.00 0.00 0.00 34 1017.3
20260906195519 32 67 3.2 8.0 0.00 0.00 0.00 34 1017.4
20260906195020 32 201 1.6 9.7 0.00 0.00 0.00 35 1017.5
20260906194533 32 237 3.2 9.7 0.00 0.00 0.00 38 1017.5
20260906194012 32 332 0.0 6.4 0.00 0.00 0.00 37 1017.7
20260906193513 32 356 3.2 6.4 0.00 0.00 0.00 37 1017.7
20260906193023 32 331 0.0 6.4 0.00 0.00 0.00 36 1017.7
20260906192515 32 288 0.0 6.4 0.00 0.00 0.00 39 1017.8
20260906192014 31 67 1.6 8.0 0.00 0.00 0.00 37 1017.8
20260906191525 31 33 0.0 9.7 0.00 0.00 0.00 39 1017.9
20260906191004 31 65 3.2 9.7 0.00 0.00 0.00 39 1018.0
20260906190505 31 261 0.0 9.7 0.00 0.00 0.00 41 1018.0
20260906190008 31 188 3.2 9.7 0.00 0.00 0.00 40 1018.2
20260906185504 31 175 1.6 9.7 0.00 0.00 0.00 41 1018.4
20260906185009 31 226 1.6 9.7 0.00 0.00 0.00 42 1018.5
20260906184514 30 58 3.2 8.0 0.00 0.00 0.00 42 1018.7
20260906184008 30 76 1.6 6.4 0.00 0.00 0.00 42 1018.7
20260906183511 30 20 1.6 8.0 0.00 0.00 0.00 43 1018.8
20260906183019 30 71 1.6 11.3 0.00 0.00 0.00 44 1018.9
20260906182514 30 24 3.2 11.3 0.00 0.00 0.00 44 1018.9
20260906182016 30 80 0.0 4.8 0.00 0.00 0.00 44 1018.9
20260906181504 30 228 1.6 8.0 0.00 0.00 0.00 45 1019.0
20260906181004 30 81 1.6 8.0 0.00 0.00 0.00 43 1019.1
20260906180506 30 83 1.6 8.0 0.00 0.00 0.00 46 1019.2
20260906180005 29 77 1.6 9.7 0.00 0.00 0.00 46 1019.4
20260906175503 29 56 3.2 9.7 0.00 0.00 0.00 45 1019.5
20260906175003 29 170 0.0 6.4 0.00 0.00 0.00 47 1019.5
20260906174511 28 95 0.0 6.4 0.00 0.00 0.00 48 1019.5
20260906174006 28 38 0.0 6.4 0.00 0.00 0.00 50 1019.6
20260906173509 28 260 0.0 9.7 0.00 0.00 0.00 52 1019.7
20260906173014 28 68 3.2 9.7 0.00 0.00 0.00 50 1019.8
20260906172513 28 72 1.6 6.4 0.00 0.00 0.00 51 1019.9
20260906172013 27 108 0.0 9.7 0.00 0.00 0.00 51 1019.9
20260906171524 27 57 3.2 9.7 0.00 0.00 0.00 51 1020.2
20260906171013 27 68 1.6 8.0 0.00 0.00 0.00 51 1020.4
20260906170516 27 50 1.6 9.7 0.00 0.00 0.00 52 1020.4
20260906170005 27 65 3.2 9.7 0.00 0.00 0.00 52 1020.4
20260906165504 27 56 1.6 6.4 0.00 0.00 0.00 53 1020.3
20260906165003 26 360 0.0 6.4 0.00 0.00 0.00 54 1020.4
20260906164508 26 337 1.6 4.8 0.00 0.00 0.00 53 1020.4
20260906164006 26 69 0.0 3.2 0.00 0.00 0.00 53 1020.4
20260906163506 26 82 1.6 3.2 0.00 0.00 0.00 53 1020.2
20260906163011 26 54 0.0 3.2 0.00 0.00 0.00 55 1020.2
20260906162507 26 59 0.0 4.8 0.00 0.00 0.00 54 1020.2
20260906162015 25 181 0.0 6.4 0.00 0.00 0.00 57 1020.3
20260906161524 25 34 0.0 6.4 0.00 0.00 0.00 57 1020.3
20260906161013 25 45 1.6 6.4 0.00 0.00 0.00 57 1020.4
20260906160511 24 58 0.0 6.4 0.00 0.00 0.00 59 1020.5
20260906160031 24 66 1.6 9.7 0.00 0.00 0.00 60 1020.5
20260906155514 23 26 1.6 9.7 0.00 0.00 0.00 60 1020.4
20260906155019 23 7 3.2 6.4 0.00 0.00 0.00 61 1020.4
20260906154505 23 48 1.6 6.4 0.00 0.00 0.00 62 1020.4
20260906154004 22 39 0.0 6.4 0.00 0.00 0.00 63 1020.4
20260906153506 22 339 1.6 4.8 0.00 0.00 0.00 64 1020.4
20260906153015 22 35 0.0 6.4 0.00 0.00 0.00 66 1020.5
20260906152507 22 67 1.6 8.0 0.00 0.00 0.00 66 1020.6
20260906152008 21 27 1.6 8.0 0.00 0.00 0.00 68 1020.5
20260906151514 21 83 1.6 8.0 0.00 0.00 0.00 68 1020.6
20260906151012 21 69 3.2 8.0 0.00 0.00 0.00 69 1020.7
20260906150510 21 70 1.6 8.0 0.00 0.00 0.00 69 1020.7
20260906150025 20 44 1.6 6.4 0.00 0.00 0.00 70 1020.7
20260906145515 20 42 0.0 8.0 0.00 0.00 0.00 70 1020.8
20260906145014 20 67 3.2 8.0 0.00 0.00 0.00 70 1020.7
20260906144526 20 78 1.6 8.0 0.00 0.00 0.00 69 1020.7
20260906144015 21 52 3.2 8.0 0.00 0.00 0.00 69 1020.6
20260906143505 21 88 1.6 8.0 0.00 0.00 0.00 69 1020.5
20260906143009 21 58 3.2 8.0 0.00 0.00 0.00 70 1020.5
20260906142504 20 62 0.0 6.4 0.00 0.00 0.00 70 1020.6
20260906142008 20 54 0.0 6.4 0.00 0.00 0.00 71 1020.6
20260906141517 20 49 0.0 6.4 0.00 0.00 0.00 72 1020.6
20260906141007 20 80 0.0 6.4 0.00 0.00 0.00 72 1020.6
20260906140512 19 80 1.6 6.4 0.00 0.00 0.00 72 1020.7
20260906140018 19 58 0.0 6.4 0.00 0.00 0.00 72 1020.7
20260906135513 18 72 0.0 4.8 0.00 0.00 0.00 72 1020.7
20260906135011 18 60 0.0 4.8 0.00 0.00 0.00 73 1020.7
20260906134526 18 348 0.0 0.0 0.00 0.00 0.00 73 1020.6
20260906134015 18 337 0.0 1.6 0.00 0.00 0.00 75 1020.6
20260906133519 17 270 0.0 3.2 0.00 0.00 0.00 77 1020.6
20260906133038 17 280 0.0 3.2 0.00 0.00 0.00 77 1020.6
20260906132514 17 279 0.0 3.2 0.00 0.00 0.00 77 1020.5
20260906132003 17 279 0.0 1.6 0.00 0.00 0.00 78 1020.5
20260906131511 17 279 0.0 1.6 0.00 0.00 0.00 79 1020.6
20260906131005 17 283 0.0 1.6 0.00 0.00 0.00 79 1020.5
20260906130509 17 283 0.0 1.6 0.00 0.00 0.00 80 1020.5
20260906130016 17 283 0.0 1.6 0.00 0.00 0.00 81 1020.5
20260906125512 17 281 0.0 0.0 0.00 0.00 0.00 80 1020.4
20260906125012 17 281 0.0 0.0 0.00 0.00 0.00 80 1020.4
20260906124521 17 281 0.0 0.0 0.00 0.00 0.00 80 1020.4
20260906124014 17 282 0.0 0.0 0.00 0.00 0.00 79 1020.4
20260906123516 17 282 0.0 0.0 0.00 0.00 0.00 79 1020.4
20260906123030 17 282 0.0 0.0 0.00 0.00 0.00 80 1020.2
20260906122517 17 282 0.0 0.0 0.00 0.00 0.00 80 1020.2
20260906122015 17 282 0.0 3.2 0.00 0.00 0.00 80 1020.2
20260906121531 17 283 0.0 3.2 0.00 0.00 0.00 80 1020.3
20260906121003 17 283 0.0 3.2 0.00 0.00 0.00 80 1020.2
20260906120509 17 282 0.0 1.6 0.00 0.00 0.00 79 1020.2
20260906120010 17 282 0.0 3.2 0.00 0.00 0.00 79 1020.2
20260906115507 17 283 0.0 3.2 0.00 0.00 0.00 79 1020.3
20260906115007 17 283 0.0 6.4 0.00 0.00 0.00 78 1020.3
20260906114531 17 283 0.0 6.4 0.00 0.00 0.00 78 1020.2
20260906114009 17 281 0.0 3.2 0.00 0.00 0.00 77 1020.3
20260906113513 17 283 0.0 3.2 0.00 0.00 0.00 76 1020.3
20260906113026 17 283 0.0 1.6 0.00 0.00 0.00 76 1020.2
20260906112515 18 282 0.0 1.6 0.00 0.00 0.00 75 1020.3
20260906112013 18 279 0.0 1.6 0.00 0.00 0.00 73 1020.1
20260906111529 18 279 0.0 1.6 0.00 0.00 0.00 72 1020.1
20260906111017 18 279 0.0 1.6 0.00 0.00 0.00 71 1020.1
20260906110516 18 279 0.0 1.6 0.00 0.00 0.00 70 1020.1
20260906110029 18 279 0.0 0.0 0.00 0.00 0.00 70 1020.0
20260906105506 18 279 0.0 1.6 0.00 0.00 0.00 69 1020.2
20260906105009 18 279 0.0 1.6 0.00 0.00 0.00 69 1020.0
20260906104520 18 280 0.0 1.6 0.00 0.00 0.00 69 1019.9
20260906104010 18 280 0.0 1.6 0.00 0.00 0.00 68 1020.2
20260906103510 18 279 0.0 1.6 0.00 0.00 0.00 67 1020.0
20260906103018 18 281 0.0 0.0 0.00 0.00 0.00 67 1020.0
20260906102513 18 281 0.0 0.0 0.00 0.00 0.00 67 1020.0
20260906102015 18 282 0.0 0.0 0.00 0.00 0.00 67 1020.1
20260906101528 18 282 0.0 0.0 0.00 0.00 0.00 66 1020.1
20260906101002 18 281 0.0 0.0 0.00 0.00 0.00 66 1020.0
20260906100506 18 281 0.0 0.0 0.00 0.00 0.00 65 1020.0
20260906100005 18 281 0.0 1.6 0.00 0.00 0.00 65 1020.0
20260906095507 18 281 0.0 1.6 0.00 0.00 0.00 63 1020.1
20260906095006 18 281 0.0 1.6 0.00 0.00 0.00 63 1019.9
20260906094508 19 281 0.0 3.2 0.00 0.00 0.00 62 1019.7
20260906094010 19 282 0.0 3.2 0.00 0.00 0.00 62 1019.7
20260906093510 19 283 0.0 4.8 0.00 0.00 0.00 62 1019.6
20260906093020 19 287 0.0 4.8 0.00 0.00 0.00 61 1019.7
20260906092512 19 283 0.0 4.8 0.00 0.00 0.00 61 1019.7
20260906092015 19 282 0.0 1.6 0.00 0.00 0.00 60 1019.6
20260906091527 19 282 0.0 3.2 0.00 0.00 0.00 60 1019.5
20260906091014 19 279 0.0 3.2 0.00 0.00 0.00 59 1019.3
20260906090519 19 279 0.0 3.2 0.00 0.00 0.00 58 1019.3
20260906090032 19 279 0.0 3.2 0.00 0.00 0.00 59 1019.4
20260906085505 20 282 0.0 1.6 0.00 0.00 0.00 60 1019.4
20260906085004 20 281 0.0 8.0 0.00 0.00 0.00 59 1019.4
20260906084507 20 282 0.0 8.0 0.00 0.00 0.00 60 1019.2
20260906084007 20 282 0.0 6.4 0.00 0.00 0.00 59 1019.3
20260906083513 20 283 1.6 8.0 0.00 0.00 0.00 59 1019.3
20260906083014 20 283 0.0 8.0 0.00 0.00 0.00 59 1019.3
20260906082510 20 282 1.6 6.4 0.00 0.00 0.00 58 1019.4
20260906082011 20 282 0.0 6.4 0.00 0.00 0.00 57 1019.4
20260906081520 20 283 0.0 3.2 0.00 0.00 0.00 56 1019.5
20260906081014 20 283 0.0 11.3 0.00 0.00 0.00 56 1019.5
20260906080516 20 283 0.0 11.3 0.00 0.00 0.00 56 1019.5
20260906080025 20 283 1.6 11.3 0.00 0.00 0.00 54 1019.5
20260906075517 20 283 0.0 11.3 0.00 0.00 0.00 54 1019.5
20260906075017 20 282 0.0 12.9 0.00 0.00 0.00 53 1019.5
20260906074505 20 281 0.0 12.9 0.00 0.00 0.00 54 1019.6
20260906074003 20 283 1.6 12.9 0.00 0.00 0.00 54 1019.7
20260906073508 20 282 0.0 1.6 0.00 0.00 0.00 54 1019.6
20260906073013 20 279 0.0 1.6 0.00 0.00 0.00 55 1019.4
20260906072509 20 279 0.0 1.6 0.00 0.00 0.00 56 1019.5
20260906072009 20 282 0.0 1.6 0.00 0.00 0.00 57 1019.3
20260906071517 20 282 0.0 1.6 0.00 0.00 0.00 56 1019.4
20260906071014 20 283 0.0 1.6 0.00 0.00 0.00 55 1019.4
20260906070512 20 270 0.0 0.0 0.00 0.00 0.00 56 1019.2
20260906070023 20 287 0.0 4.8 0.00 0.00 0.00 56 1019.2
20260906065519 20 284 0.0 4.8 0.00 0.00 0.00 56 1019.5
20260906065015 20 281 0.0 3.2 0.00 0.00 0.00 52 1019.5
20260906064527 20 281 0.0 3.2 0.00 0.00 0.00 52 1019.3
20260906064021 21 281 0.0 3.2 0.00 0.00 0.00 51 1019.5
20260906063520 21 270 0.0 1.6 0.00 0.00 0.00 51 1019.7
20260906063007 21 282 0.0 1.6 0.00 0.00 0.00 50 1019.9
20260906062508 21 270 0.0 1.6 0.00 0.00 0.00 49 1019.8
20260906062012 21 279 0.0 1.6 0.00 0.00 0.00 48 1019.6
20260906061514 21 279 0.0 3.2 0.00 0.00 0.00 48 1019.6
20260906061010 22 279 0.0 3.2 0.00 0.00 0.00 48 1019.6
20260906060512 22 279 0.0 3.2 0.00 0.00 0.00 49 1019.7
20260906060026 22 279 0.0 3.2 0.00 0.00 0.00 48 1019.6
20260906055514 22 270 0.0 3.2 0.00 0.00 0.00 48 1019.5
20260906055015 22 289 0.0 3.2 0.00 0.00 0.00 48 1019.5
20260906054541 22 270 0.0 1.6 0.00 0.00 0.00 49 1019.5
20260906054016 22 286 0.0 1.6 0.00 0.00 0.00 50 1019.4
20260906053516 22 270 0.0 1.6 0.00 0.00 0.00 50 1019.6
20260906053031 22 284 0.0 1.6 0.00 0.00 0.00 48 1019.6
20260906052518 22 285 0.0 1.6 0.00 0.00 0.00 46 1019.7
20260906052018 22 285 0.0 1.6 0.00 0.00 0.00 47 1019.6
20260906051509 22 285 0.0 1.6 0.00 0.00 0.00 47 1019.5
20260906051010 22 279 0.0 0.0 0.00 0.00 0.00 47 1019.4
20260906050509 22 279 0.0 1.6 0.00 0.00 0.00 47 1019.3
20260906050016 22 279 0.0 1.6 0.00 0.00 0.00 47 1019.2
20260906045512 22 279 0.0 4.8 0.00 0.00 0.00 46 1018.8
20260906045012 22 279 0.0 4.8 0.00 0.00 0.00 46 1018.6
20260906044521 23 279 1.6 4.8 0.00 0.00 0.00 46 1018.5
20260906044018 23 287 0.0 1.6 0.00 0.00 0.00 45 1018.5
20260906043516 23 287 0.0 1.6 0.00 0.00 0.00 45 1018.5
20260906043032 23 287 0.0 3.2 0.00 0.00 0.00 45 1018.5
20260906042518 23 287 0.0 3.2 0.00 0.00 0.00 44 1018.5
20260906042017 23 285 0.0 3.2 0.00 0.00 0.00 42 1018.4
20260906041534 23 287 0.0 3.2 0.00 0.00 0.00 40 1018.2
20260906041015 24 283 0.0 1.6 0.00 0.00 0.00 42 1018.1
20260906040508 24 287 0.0 1.6 0.00 0.00 0.00 40 1018.0
20260906040026 24 287 0.0 1.6 0.00 0.00 0.00 40 1018.1
20260906035510 25 329 0.0 1.6 0.00 0.00 0.00 40 1018.2
20260906035010 25 330 0.0 1.6 0.00 0.00 0.00 40 1018.3
20260906034520 25 68 0.0 1.6 0.00 0.00 0.00 40 1018.4
20260906034014 25 24 0.0 1.6 0.00 0.00 0.00 39 1018.4
20260906033512 25 283 0.0 1.6 0.00 0.00 0.00 39 1018.4
20260906033039 26 77 0.0 1.6 0.00 0.00 0.00 38 1018.5
20260906032515 26 79 0.0 1.6 0.00 0.00 0.00 36 1018.4
20260906032016 26 77 0.0 1.6 0.00 0.00 0.00 36 1018.2
20260906031529 26 68 0.0 1.6 0.00 0.00 0.00 35 1018.2
20260906031017 26 68 0.0 4.8 0.00 0.00 0.00 35 1018.1
20260906030517 26 299 0.0 4.8 0.00 0.00 0.00 34 1018.1
20260906030034 26 312 0.0 6.4 0.00 0.00 0.00 35 1018.0
20260906025519 26 22 0.0 6.4 0.00 0.00 0.00 35 1018.0
20260906025009 26 17 0.0 4.8 0.00 0.00 0.00 34 1017.9
20260906024514 26 227 0.0 4.8 0.00 0.00 0.00 34 1017.8
20260906024014 26 279 0.0 4.8 0.00 0.00 0.00 34 1017.8
20260906023515 26 326 0.0 1.6 0.00 0.00 0.00 34 1017.7
20260906023023 26 279 0.0 4.8 0.00 0.00 0.00 33 1017.6
20260906022516 26 281 0.0 6.4 0.00 0.00 0.00 33 1017.5
20260906022016 27 231 0.0 17.7 0.00 0.00 0.00 33 1017.5
20260906021528 27 270 3.2 17.7 0.00 0.00 0.00 33 1017.5
20260906021017 27 289 4.8 19.3 0.00 0.00 0.00 33 1017.4
20260906020517 27 233 8.0 19.3 0.00 0.00 0.00 32 1017.2
20260906020034 27 285 3.2 12.9 0.00 0.00 0.00 32 1017.2
20260906015519 27 290 4.8 12.9 0.00 0.00 0.00 33 1017.2
20260906015018 27 295 3.2 14.5 0.00 0.00 0.00 33 1017.2
20260906014535 27 359 3.2 14.5 0.00 0.00 0.00 32 1017.3
20260906014010 27 290 4.8 14.5 0.00 0.00 0.00 32 1017.2
20260906013510 27 289 4.8 16.1 0.00 0.00 0.00 32 1017.2
20260906013016 27 221 4.8 16.1 0.00 0.00 0.00 32 1017.1
20260906012515 27 221 3.2 14.5 0.00 0.00 0.00 32 1017.2
20260906012012 27 27 4.8 14.5 0.00 0.00 0.00 32 1017.3
20260906011528 27 270 6.4 17.7 0.00 0.00 0.00 33 1017.4
20260906011004 27 279 4.8 17.7 0.00 0.00 0.00 33 1017.4
20260906010508 27 288 8.0 25.7 0.00 0.00 0.00 32 1017.3
20260906010006 27 302 9.7 25.7 0.00 0.00 0.00 32 1017.3
20260906005504 28 212 4.8 20.9 0.00 0.00 0.00 32 1017.4
20260906005008 28 280 9.7 24.1 0.00 0.00 0.00 31 1017.4
20260906004511 28 304 9.7 24.1 0.00 0.00 0.00 31 1017.5
20260906004009 28 221 8.0 32.2 0.00 0.00 0.00 31 1017.7
20260906003507 28 281 6.4 32.2 0.00 0.00 0.00 30 1017.7
20260906003007 29 302 9.7 19.3 0.00 0.00 0.00 29 1017.7
20260906002509 30 24 9.7 19.3 0.00 0.00 0.00 29 1017.6
20260906002008 30 275 4.8 16.1 0.00 0.00 0.00 28 1017.5
20260906001510 30 209 4.8 22.5 0.00 0.00 0.00 27 1017.5
20260906001007 30 309 8.0 22.5 0.00 0.00 0.00 26 1017.3
20260906000507 31 262 6.4 20.9 0.00 0.00 0.00 26 1017.2
20260906000011 31 270 9.7 24.1 0.00 0.00 0.00 26 1017.2
20260905235508 31 262 9.7 24.1 0.00 0.00 0.00 25 1017.3
20260905235008 32 248 8.0 16.1 0.00 0.00 0.00 25 1017.2
20260905234512 32 270 1.6 8.0 0.00 0.00 0.00 24 1017.3
20260905234004 32 289 0.0 3.2 0.00 0.00 0.00 24 1017.2
20260905233509 32 295 1.6 4.8 0.00 0.00 0.00 23 1017.1
20260905233009 32 289 1.6 4.8 0.00 0.00 0.00 21 1017.0
20260905232510 32 283 1.6 4.8 0.00 0.00 0.00 22 1017.0
20260905232008 32 294 1.6 4.8 0.00 0.00 0.00 23 1016.8
20260905231518 32 289 1.6 4.8 0.00 0.00 0.00 22 1016.8
20260905231007 32 281 1.6 4.8 0.00 0.00 0.00 23 1016.8
20260905230507 32 280 0.0 3.2 0.00 0.00 0.00 22 1016.8
20260905230012 32 185 0.0 1.6 0.00 0.00 0.00 23 1016.7
20260905225508 32 185 0.0 1.6 0.00 0.00 0.00 22 1016.6
20260905225011 32 71 0.0 1.6 0.00 0.00 0.00 25 1016.6
20260905224520 32 71 0.0 3.2 0.00 0.00 0.00 24 1016.7
20260905224010 32 69 0.0 4.8 0.00 0.00 0.00 25 1016.6
20260905223510 33 80 0.0 4.8 0.00 0.00 0.00 22 1016.6
20260905223010 33 76 0.0 3.2 0.00 0.00 0.00 21 1016.6
20260905222509 33 174 0.0 4.8 0.00 0.00 0.00 22 1016.6
20260905222008 33 111 0.0 4.8 0.00 0.00 0.00 22 1016.5
20260905221513 33 229 1.6 6.4 0.00 0.00 0.00 22 1016.5
20260905221011 33 146 1.6 8.0 0.00 0.00 0.00 21 1016.5
20260905220510 34 75 0.0 8.0 0.00 0.00 0.00 20 1016.5
20260905220015 34 212 0.0 4.8 0.00 0.00 0.00 20 1016.6
20260905215509 34 11 0.0 9.7 0.00 0.00 0.00 21 1016.7